TIME,DELAY(SENSOR),PRES,OXYGEN,RAWTEMP,T(OPTODE),TCPHASE,FLUOR,BETA(BETA700),BETA(BETA412),BETA(BETA440),CDOM,C(CSC),ED(ED412.20),ED(ED444.00),ED(ED489.60),ED(ED554.30),LU(LU412.10),LU(LU443.90),LU(LU489.70),LU(LU554.70),COMP,TILTX,TILTY,CHECK
1340249558,5808,897.4799804687500000,38.8134384155273440,566.2014770507812000,4.2935409545898440,55.7564582824707000,56,100,102,79,83,15550,0,0,0,0,2147119981,2147772909,2147577289,2147570441,91,3,13,4483
1340253154,5809,979.2999877929688000,41.3852195739746100,571.0438842773438000,4.1431179046630860,55.4245491027832000,55,100,102,78,83,15551,0,0,0,0,2147122176,2147775021,2147570139,2147570139,919,3,13,37754
1340256754,5808,993.8800048828125000,39.0330886840820300,573.4329833984375000,4.0688271522521970,55.7927207946777340,55,98,103,78,84,15551,0,0,0,0,2147124169,2147774317,2147570761,2147573101,457,2,13,32899
1340260354,5807,1001.4000244140625000,39.5492591857910160,574.1260986328125000,4.0472679138183590,55.7274208068847660,54,100,100,78,83,15550,0,0,0,0,2147122514,2147770048,2147576832,2147570934,224,3,13,58644
1340263954,5808,1005.2199707031250000,39.2757797241210940,574.1422119140625000,4.0467658042907715,55.7695083618164060,55,99,100,77,83,15549,0,0,0,0,2147124388,2147775652,2147570944,2147570459,382,3,13,39870
1340267554,5808,1007.3599853515625000,39.9149398803710940,574.4968872070312000,4.0357317924499510,55.6769218444824200,55,97,101,78,82,15549,0,0,0,0,2147122395,2147774281,2147571584,2147572690,185,3,13,30
1340271154,5809,1005.0499877929688000,40.8525314331054700,574.9730834960938000,4.0209140777587890,55.5422706604003900,55,98,100,79,83,15548,0,0,0,0,2147119652,2147779209,2147575277,2147571126,803,3,13,13546
1340274754,5809,1007.0499877929688000,40.1364097595214840,575.5333862304688000,4.0034770965576170,55.6560211181640600,54,101,101,80,83,15549,0,0,0,0,2147120932,2147770331,2147575689,2147570944,220,2,13,30024
1340278354,5808,1015.1799926757812000,40.3544616699218750,575.2396850585938000,4.0126171112060550,55.6199607849121100,55,99,101,78,84,15550,0,0,0,0,2147126985,2147774820,2147574985,2147569042,416,3,13,38291
1340281954,5809,1016.0000000000000000,40.6309204101562500,575.0051269531250000,4.0199179649353030,55.5767402648925800,55,101,101,78,81,15553,0,0,0,0,2147123209,2147767442,2147572105,2147570505,132,3,13,46845
1340285554,5809,1015.0599975585938000,40.6489181518554700,574.9790039062500000,4.0207309722900390,55.5699882507324200,55,99,101,78,84,15550,0,0,0,0,2147126491,2147772288,2147571922,2147567853,64,3,13,32333
1340289154,5810,1016.2700195312500000,40.2891807556152340,574.8311157226562000,4.0253329277038570,55.6268615722656250,54,98,100,79,83,15547,0,0,0,0,2147128100,2147774125,2147573814,2147570139,360,3,13,28009
1340292754,5806,1015.8200073242188000,39.8488693237304700,575.0186157226562000,4.0194988250732420,55.6921310424804700,55,102,101,78,83,15549,0,0,0,0,2147125595,2147775780,2147577033,2147571648,207,3,13,11207
1340296354,5810,1016.8200073242188000,39.4623413085937500,575.1669921875000000,4.0148792266845700,55.7485504150390600,55,99,102,78,83,15546,0,0,0,0,2147120429,2147774765,2147573467,2147571501,307,2,13,35198
1340299954,5811,1012.1799926757812000,39.5244789123535160,575.8836059570312000,3.9925770759582520,55.7514991760253900,55,98,100,78,84,15543,0,0,0,0,2147124681,2147770706,2147571821,2147566153,3590,3,13,56517
1340303554,5808,1010.7700195312500000,40.6792907714843750,576.6671752929688000,3.9681839942932130,55.5864906311035160,55,104,102,78,83,15546,0,0,0,0,2147126409,2147775561,2147573001,2147570541,212,3,13,12004
1340307154,5809,1013.1199951171875000,40.9611206054687500,576.5798950195312000,3.9709029197692870,55.5451393127441400,55,100,101,77,84,15544,0,0,0,0,2147124928,2147776868,2147572900,2147569837,266,3,13,33229
1340310754,5809,1016.9500122070312000,40.5481605529785160,576.0864868164062000,3.9862630367279053,55.6014595031738300,55,98,100,78,83,15545,0,0,0,0,2147125165,2147773540,2147575085,2147571757,252,3,13,28000
1340314354,5808,1023.9299926757812000,40.1706809997558600,575.4946289062500000,4.0046839714050290,55.6518402099609400,55,97,101,79,83,15543,0,0,0,0,2147127140,2147768365,2147573924,2147570651,3207,2,13,29190
1340317954,5808,1025.7399902343750000,39.8731307983398440,575.0161743164062000,4.0195708274841310,55.6882591247558600,55,100,100,78,83,15541,0,0,0,0,2147122861,2147774491,2147573522,2147569947,389,3,13,54102
1340321554,5810,1025.6700439453125000,40.1422004699707000,575.2736206054688000,4.0115618705749510,55.6465415954589840,55,99,102,78,83,15543,0,0,0,0,2147123885,2147774683,2147573924,2147569216,3375,3,13,31792
1340325154,5809,1014.6500244140625000,39.9034194946289060,576.0327148437500000,3.9879379272460938,55.6928787231445300,55,99,100,77,83,15541,0,0,0,0,2147126902,2147773037,2147567853,2147570166,3169,3,13,8568
1340328754,5809,1010.5999755859375000,40.8984985351562500,576.9707031250000000,3.9587359428405760,55.5569190979003900,56,99,101,78,85,15543,0,0,0,0,2147123172,2147769472,2147570048,2147569206,3480,3,13,28114
1340332354,5809,1015.3499755859375000,41.6713104248046900,577.5603027343750000,3.9403760433197020,55.4485816955566400,56,98,102,79,83,15542,0,0,0,0,2147122989,2147771830,2147570633,2147566939,3439,3,13,6186
1340335954,5809,1025.3399658203125000,40.9890213012695300,576.3582763671875000,3.9778020381927490,55.5388488769531250,55,98,101,77,84,15542,0,0,0,0,2147124525,2147772041,2147575040,2147572726,3573,2,13,33210
1340339554,5811,1020.9899902343750000,40.1005287170410160,576.0761718750000000,3.9865820407867430,55.6663703918457000,55,99,102,77,84,15544,0,0,0,0,2147121280,2147771821,2147572434,2147571556,3507,3,13,25575
1340343154,5809,1017.2700195312500000,39.9593009948730500,576.4196166992188000,3.9758930206298830,55.6920204162597660,54,98,102,79,83,15541,0,0,0,0,2147124379,2147773266,2147574866,2147569545,350,3,13,33045
1340346754,5809,1015.6300048828125000,40.6465301513671900,577.4506835937500000,3.9437899589538574,55.5978088378906250,55,98,100,77,82,15427,0,0,0,0,2147124434,2147775277,2147572845,2147568658,756,3,13,36021
1340350354,5809,1023.0700073242188000,40.3522300720214840,576.0925292968750000,3.9860761165618896,55.6261711120605500,55,102,102,78,84,15409,0,0,0,0,2147121334,2147771638,2147570057,2147569344,350,3,13,34988
1340353954,5807,1028.0100097656250000,40.3063507080078100,575.6602172851562000,3.9995329380035400,55.6322593688964840,55,98,102,77,83,15407,0,0,0,0,2147124443,2147774162,2147571446,2147571401,239,3,13,41319
1340357554,5808,1028.3399658203125000,39.9595718383789060,575.1726074218750000,4.0147061347961430,55.6752204895019500,55,98,100,78,85,15408,0,0,0,0,2147124068,2147774089,2147572836,2147572909,283,3,13,22212
1340361154,5808,1028.6800537109375000,39.8428802490234400,575.6677246093750000,3.9992959499359130,55.7019386291503900,54,97,100,77,84,15402,0,0,0,0,2147123437,2147777773,2147575323,2147569060,189,3,13,20457
1340364754,5808,1025.1800537109375000,40.0586585998535160,576.0205078125000000,3.9883160591125490,55.6719589233398440,55,97,102,78,84,15409,0,0,0,0,2147123209,2147772900,2147570459,2147571904,177,3,13,8436
1340368354,5811,1018.5800170898438000,40.0249710083007800,576.8067016601562000,3.9638419151306152,55.6875610351562500,54,97,101,79,82,15380,0,0,0,0,2147124233,2147773997,2147575104,2147570038,3287,3,13,60885
1340371954,5807,1023.0000000000000000,40.6907196044921900,576.8637695312500000,3.9620630741119385,55.5836105346679700,56,148,101,77,83,15406,0,0,0,0,2147124160,2147774793,2147578432,2147571346,3555,3,13,5633
1340375554,5808,1024.9499511718750000,40.8735809326171900,576.7194213867188000,3.9665598869323730,55.5584106445312500,55,100,102,78,85,15405,0,0,0,0,2147124937,2147776566,2147576713,2147571611,38,3,13,26823
1340379154,5811,1025.0699462890625000,40.4567108154296900,576.6829223632812000,3.9676969051361084,55.6212310791015600,56,98,101,78,84,15404,0,0,0,0,2147122724,2147774016,2147578422,2147568493,209,3,13,27428
1340382754,5810,1020.5700073242188000,40.1233787536621100,576.6530151367188000,3.9686279296875000,55.6705017089843750,54,97,102,79,83,15409,0,0,0,0,2147122989,2147771995,2147574948,2147569069,98,3,13,818
1340386354,5809,1024.9300537109375000,40.7368392944335940,576.9102172851562000,3.9606211185455322,55.5833396911621100,55,97,101,78,84,15403,0,0,0,0,2147121965,2147773915,2147573348,2147569901,115,3,13,1197
1340389954,5809,1027.9000244140625000,40.5495681762695300,576.1265869140625000,3.9850139617919920,55.6021308898925800,54,98,100,78,84,15404,0,0,0,0,2147123803,2147776155,2147574912,2147569664,596,3,13,54431
1340393156,5810,1023.5700073242188000,39.6843605041503900,576.3129272460938000,3.9792160987854004,55.7318191528320300,55,98,101,79,82,15406,0,0,0,0,2147121115,2147773586,2147571181,2147572352,3411,2,13,18660
